Back to catalog

STARLINK-32885

AliveCommunicationsVLEO
NORAD 62958·PAYLOAD·🇺🇸 United States

Launched Feb 11, 2025 from Vandenberg Space Force Base

Loading…

Next Passes (next 24 hours)

TLE

FreshSource: CelesTrak SupGP

Epoch: Sep 14, 2026, 22:46 UTC

1 62958C 25029L   26257.94909722  .00049369  00000+0  14587-2 0  2576
2 62958  53.1586  67.5062 0001215  76.7174  32.1826 15.34364958    18

Track STARLINK-32885 in real time with AllMySat

Download on the App Store